Content
SEND FEEDBACK

Daily
Averages
Monthly
Summary
South Africa

BELHAR, SOUTH AFRICA


Home > Africa > South Africa
Elevation: 13 meters     Latitude: 33 55S     Longitude: 018 28E

WEATHER
 
SELECT A DAY
Number of Records: 190,218;   Date Range: 7/1/96 - 7/27/14
 
SHARE

PRINT THIS DATA

[ ← Previous Day ]
WEATHER ALMANAC - 31 JANUARY, 2013
[ Next Day → ]
[ °F ]   °C
Weather ElementAverageHighLow
Temperature25.1 °C32 °C (2:00 pm)20 °C (5:00 am)
Dewpoint15.3 °C17 °C (4:00 pm)12.8 °C (11:00 am)
Humidity53.4 %68 % (2:00 am)27 % (11:00 am)
Barometer1014.6 hPa1016.6 hPa (2:00 am)1012.2 hPa (6:00 pm)
Wind Speed25.6 km/h33.3 km/h (2:00 pm)
Weather ElementAverage
Visibility20 km
Wind DirectionSSW (187.7 °)

Weather ElementTotal
Precipitation---
Cooling Degree Days7.7 (Base 18.3)
Growing Degree Days16 (Base 10)
Averaged from 31 records on 31 January, 2013
WEATHER CONDITIONS BREAKOUT
WIND DIRECTION BREAKOUT
WEATHER BY HOUR - 31 JANUARY, 2013
[ °F ]   °C
Local TimeTemperatureDewpointHumidityBarometerVisibilityWind DirectionWind SpeedGust SpeedPrecipitationEventsConditions
1:00 AM22 °C15 °C64 %1016.3 hPa10 kmSouth (170°)31.5 km/hPartly Cloudy
2:00 AM21.1 °C15 °C60 %1016.6 hPa19.3 kmSSE (160°)31.5 km/hScattered Clouds
2:00 AM21 °C15 °C68 %1016.3 hPa10 kmSSE (160°)31.5 km/hPartly Cloudy
3:00 AM21 °C15 °C68 %1016.3 hPa10 kmSSE (160°)27.8 km/hPartly Cloudy
4:00 AM21 °C14 °C64 %1015.2 hPa10 kmSSE (160°)31.5 km/hPartly Cloudy
5:00 AM20.6 °C14.4 °C59 %1015.6 hPa19.3 kmSSE (160°)27.8 km/hScattered Clouds
5:00 AM20 °C14 °C68 %1015.2 hPa10 kmSSE (150°)29.6 km/hPartly Cloudy
6:00 AM20 °C14 °C68 %1015.2 hPa10 kmSSE (150°)25.9 km/hPartly Cloudy
7:00 AM21 °C15 °C68 %1015.2 hPa10 kmSSE (160°)24.1 km/hPartly Cloudy
8:00 AM22.8 °C14.4 °C51 %1016.3 hPa40.2 kmSE (140°)27.8 km/hScattered Clouds
8:00 AM23 °C15 °C61 %1016.3 hPa10 kmSSE (150°)24.1 km/hPartly Cloudy
9:00 AM24 °C15 °C57 %1016.3 hPa10 kmSouth (190°)20.4 km/hPartly Cloudy
10:00 AM27 °C16 °C51 %1016.3 hPa10 kmSSE (160°)29.6 km/hPartly Cloudy
11:00 AM28.9 °C12.8 °C27 %1015.6 hPa40.2 kmSSE (150°)14.8 km/hScattered Clouds
11:00 AM29 °C13 °C37 %1015.2 hPa10 kmSSE (160°)16.7 km/hPartly Cloudy
12:00 PM30 °C15 °C40 %1015.2 hPaSSE (160°)25.9 km/hClear
1:00 PM31 °C16 °C40 %1014.2 hPaSouth (180°)31.5 km/hClear
2:00 PM31.1 °C15.6 °C29 %1014.2 hPa40.2 kmSouth (190°)33.3 km/hClear
2:00 PM32 °C15 °C36 %1014.2 hPaSouth (190°)33.3 km/hClear
3:00 PM31 °C16 °C40 %1013.2 hPaSouth (190°)31.5 km/hClear
4:00 PM30 °C17 °C45 %1013.2 hPaSSW (210°)29.6 km/hClear
5:00 PM28.9 °C16.7 °C38 %1012.9 hPa40.2 kmSW (230°)25.9 km/hClear
5:00 PM29 °C17 °C48 %1013.2 hPaSW (220°)24.1 km/hClear
6:00 PM26 °C17 °C57 %1012.2 hPaSW (230°)33.3 km/hClear
7:00 PM26 °C16 °C54 %1012.2 hPaSW (220°)18.5 km/hClear
8:00 PM25 °C15.6 °C47 %1012.9 hPa40.2 kmSW (230°)22.2 km/hClear
8:00 PM24 °C16 °C61 %1013.2 hPaSW (230°)20.4 km/hClear
9:00 PM22 °C15 °C64 %1013.2 hPaWSW (240°)20.4 km/hClear
10:00 PM23 °C16 °C65 %1013.2 hPaWSW (240°)18.5 km/hClear
11:00 PM22.8 °C15.6 °C54 %1013.5 hPa30.6 kmWSW (240°)13 km/h
11:00 PM23 °C16 °C65 %1013.2 hPaWSW (240°)14.8 km/hClear
Hourly data recorded from FACT, located 0 kilometers away from Belhar, South Africa







STORIES FROM OUR PARTNERS